Location: Unspecified
(0.0000°N, 0.0000°E)
Time: 09:40:24
(UTC+00:00)

SRMSAT - Pass Details

Date: 29 March 2019
Orbit: 849 x 865 km, 20.0° (Epoch: 26 April)

Event Time Altitude Azimuth Distance (km) Brightness Sun altitude
Rises 05:29:18 0° 316° (NW) 3,397 ? -8.9°
Reaches altitude 10° 05:34:17 10° 352° (N) 2,466 ? -7.7°
Maximum altitude 05:35:42 11° 6° (N) 2,409 ? -7.3°
Drops below altitude 10° 05:37:08 10° 21° (NNE) 2,470 ? -6.9°
Sets 05:42:09 0° 57° (ENE) 3,412 ? -5.7°
